Satellite-Ground Cal/Val Region Overpasses Predictions

Prediction of Satellite NPP Overpassing Cal/Val Region: PacNW

Region Location: (Latitude: 10.00, Longitude: 139.50) to (Latitude: 22.70, Longitude: 165.60).

Table of predicted overpasses for the next 14.0 days since TLE Epoch: 10/2/2020
Interval Starting Time Starting Location Ending Time Ending Location
1 10/03/2020 02:14:54 ( 12.82, 165.60) 10/03/2020 02:17:42 ( 22.68, 163.24)
2 10/03/2020 03:55:36 ( 10.01, 140.87) 10/03/2020 03:57:16 ( 15.88, 139.51)
3 10/03/2020 14:46:00 ( 22.66, 163.46) 10/03/2020 14:49:35 ( 10.03, 160.46)
4 10/04/2020 03:36:34 ( 10.05, 145.62) 10/04/2020 03:40:09 ( 22.68, 142.62)
5 10/04/2020 14:30:04 ( 11.69, 165.60) 10/04/2020 14:30:32 ( 10.05, 165.22)
6 10/04/2020 16:08:27 ( 22.66, 142.84) 10/04/2020 16:12:02 ( 10.04, 139.84)
7 10/05/2020 03:17:32 ( 10.04, 150.38) 10/05/2020 03:21:07 ( 22.66, 147.38)
8 10/05/2020 15:49:25 ( 22.68, 147.60) 10/05/2020 15:53:00 ( 10.06, 144.60)
9 10/06/2020 02:58:29 ( 10.03, 155.14) 10/06/2020 03:02:04 ( 22.65, 152.14)
10 10/06/2020 15:30:22 ( 22.69, 152.36) 10/06/2020 15:33:58 ( 10.01, 149.35)
11 10/07/2020 02:39:27 ( 10.01, 159.90) 10/07/2020 02:43:03 ( 22.69, 156.89)
12 10/07/2020 15:11:21 ( 22.65, 157.11) 10/07/2020 15:14:56 ( 10.03, 154.11)
13 10/08/2020 02:20:26 ( 10.06, 164.64) 10/08/2020 02:24:01 ( 22.68, 161.65)
14 10/08/2020 14:52:18 ( 22.66, 161.87) 10/08/2020 14:55:53 ( 10.04, 158.87)
15 10/09/2020 03:42:53 ( 10.05, 144.03) 10/09/2020 03:46:28 ( 22.68, 141.03)
16 10/09/2020 14:34:28 ( 18.45, 165.59) 10/09/2020 14:36:51 ( 10.05, 163.63)
17 10/09/2020 16:14:46 ( 22.66, 141.25) 10/09/2020 16:16:49 ( 15.45, 139.50)
18 10/10/2020 03:23:51 ( 10.04, 148.79) 10/10/2020 03:27:26 ( 22.66, 145.79)
19 10/10/2020 15:55:43 ( 22.68, 146.01) 10/10/2020 15:59:18 ( 10.06, 143.01)
20 10/11/2020 03:04:48 ( 10.03, 153.55) 10/11/2020 03:08:23 ( 22.65, 150.55)
21 10/11/2020 15:36:41 ( 22.69, 150.77) 10/11/2020 15:40:17 ( 10.01, 147.76)
22 10/12/2020 02:45:46 ( 10.02, 158.31) 10/12/2020 02:49:21 ( 22.64, 155.31)
23 10/12/2020 15:17:39 ( 22.64, 155.52) 10/12/2020 15:21:14 ( 10.02, 152.52)
24 10/13/2020 02:26:43 ( 10.01, 163.07) 10/13/2020 02:30:19 ( 22.69, 160.05)
25 10/13/2020 14:58:37 ( 22.65, 160.28) 10/13/2020 15:02:12 ( 10.03, 157.28)
26 10/14/2020 02:10:23 ( 19.51, 165.59) 10/14/2020 02:11:17 ( 22.68, 164.81)
27 10/14/2020 03:49:11 ( 10.00, 142.45) 10/14/2020 03:52:42 ( 22.39, 139.51)
28 10/14/2020 14:39:34 ( 22.67, 165.04) 10/14/2020 14:43:09 ( 10.05, 162.04)
29 10/14/2020 16:21:04 ( 22.66, 139.66) 10/14/2020 16:21:14 ( 22.07, 139.51)
30 10/15/2020 03:30:09 ( 10.05, 147.19) 10/15/2020 03:33:44 ( 22.68, 144.20)
31 10/15/2020 16:02:02 ( 22.67, 144.42) 10/15/2020 16:05:37 ( 10.05, 141.42)
32 10/16/2020 03:11:07 ( 10.04, 151.95) 10/16/2020 03:14:42 ( 22.67, 148.96)
